Overview Statistics Trail Chart Weather Telemetry Raw packets
 

This is the latest recevied weather packets stored in our database for station/object N1SU-13. If no packets are shown the sender has not sent any weather packets the latest 10 day(s).

<< 41 42 43 44 45 46 47 >>
Time Temp. Humidity Pressure Rain* Wind** Luminosity Snow
1788055324 16.67° C 79% 1016.4 hPa 0 mm - - -
1788054725 17.22° C 78% 1016.3 hPa 0 mm - - -
1788054097 17.22° C 73% 1016.2 hPa 0 mm - - -
1788053539 17.78° C 73% 1016.2 hPa 0 mm - - -
1788052941 17.78° C 70% 1016.2 hPa 0 mm - - -
1788052279 18.33° C 69% 1016.2 hPa 0 mm - - -
1788051586 18.89° C 67% 1016 hPa 0 mm - - -
1788050971 18.89° C 68% 1016 hPa 0 mm - - -
1788050287 18.33° C 69% 1016.1 hPa 0 mm - - -
1788049641 18.33° C 68% 1015.9 hPa 0 mm - - -
1788049061 18.33° C 68% 1016 hPa 0 mm - - -
1788048480 18.33° C 69% 1016.1 hPa 0 mm - - -
1788047819 18.33° C 68% 1016.1 hPa 0 mm - - -
1788047129 18.89° C 67% 1016.1 hPa 0 mm - - -
1788046528 19.44° C 66% 1016.2 hPa 0 mm - - -
1788045863 20° C 65% 1016 hPa 0 mm - - -
1788045167 20.56° C 64% 1016 hPa 0 mm - - -
1788044601 20° C 65% 1016.1 hPa 0 mm - - -
1788043954 19.44° C 68% 1016.2 hPa 0 mm - - -
1788043394 19.44° C 66% 1016.1 hPa 0 mm - - -
1788042752 18.89° C 69% 1016 hPa 0 mm - - -
1788042128 18.89° C 69% 1016.2 hPa 0 mm - - -
1788041516 18.33° C 71% 1016.2 hPa 0 mm - - -
1788040920 17.78° C 73% 1016.5 hPa 0 mm - - -
1788040236 17.22° C 74% 1016.6 hPa 0 mm - - -

* Rain latest hour (hover to see other rain measurements)
** Current wind speed in m/s (hover to see current wind gust speed)